When you browse on this site, cookies collect data to enhance your experience and personalize the content and advertising you see.
Visit our Privacy Policy to learn more. By continuing to use the site, you agree to this use of cookies and data.
  • In Czech Republic
  • List of Countries
  • For 7 days
  • Water Temperature
  • Satellite Maps
  • Weather Map
  • Weather Widgets
  • user-avatar
    Login

    Hourly Weather Alekseevka

    Today, 20 May, Monday

    Time Temperature Precipitation Wind Pressure Humidity
    00:00 +16°C° 0 mm 3 mps 748 mmHg 86%
    01:00 +14°C° 0 mm 3 mps 748 mmHg 87%
    02:00 +14°C° 0 mm 3 mps 748 mmHg 88%
    03:00 +14°C° 0 mm 3 mps 748 mmHg 87%
    04:00 +14°C° 0 mm 3 mps 748 mmHg 86%
    05:00 +14°C° 0 mm 4 mps 748 mmHg 85%
    06:00 +17°C° 0 mm 4 mps 748 mmHg 78%
    07:00 +19°C° 0 mm 5 mps 748 mmHg 71%
    08:00 +20°C° 0 mm 5 mps 748 mmHg 63%
    09:00 +21°C° 0 mm 6 mps 749 mmHg 60%
    10:00 +23°C° 0 mm 6 mps 749 mmHg 56%
    11:00 +24°C° 0 mm 6 mps 749 mmHg 53%
    12:00 +24°C° 0 mm 6 mps 748 mmHg 51%
    13:00 +26°C° 0 mm 6 mps 748 mmHg 50%
    14:00 +26°C° 0 mm 6 mps 748 mmHg 48%
    15:00 +26°C° 0 mm 6 mps 748 mmHg 50%
    16:00 +24°C° 0 mm 6 mps 747 mmHg 52%
    17:00 +25°C° 0 mm 5 mps 747 mmHg 54%
    18:00 +22°C° 0 mm 5 mps 747 mmHg 58%
    19:00 +21°C° 0 mm 5 mps 747 mmHg 62%
    20:00 +19°C° 0 mm 4 mps 747 mmHg 67%
    21:00 +19°C° 0 mm 4 mps 747 mmHg 67%
    22:00 +17°C° 0 mm 5 mps 747 mmHg 68%
    23:00 +17°C° 0 mm 5 mps 747 mmHg 68%

    Tomorrow, 21 May, Tuesday

    Time Temperature Precipitation Wind Pressure Humidity
    00:00 +16°C° 0 mm 5 mps 747 mmHg 69%
    01:00 +16°C° 0 mm 5 mps 747 mmHg 69%
    02:00 +15°C° 0 mm 5 mps 747 mmHg 70%
    03:00 +15°C° 0 mm 5 mps 747 mmHg 70%
    04:00 +15°C° 0 mm 5 mps 747 mmHg 71%
    05:00 +15°C° 0 mm 5 mps 747 mmHg 72%
    06:00 +16°C° 0 mm 5 mps 747 mmHg 69%
    07:00 +17°C° 0 mm 5 mps 747 mmHg 67%
    08:00 +19°C° 0 mm 6 mps 747 mmHg 64%
    09:00 +21°C° 0 mm 6 mps 747 mmHg 60%
    10:00 +22°C° 0 mm 7 mps 747 mmHg 56%
    11:00 +23°C° 0 mm 7 mps 747 mmHg 52%
    12:00 +24°C° 0 mm 7 mps 746 mmHg 52%
    13:00 +24°C° 0 mm 7 mps 746 mmHg 52%
    14:00 +26°C° 0 mm 7 mps 745 mmHg 53%
    15:00 +23°C° 0.7 mm 6 mps 745 mmHg 60%
    16:00 +22°C° 0.7 mm 6 mps 745 mmHg 68%
    17:00 +21°C° 0.7 mm 5 mps 745 mmHg 76%
    18:00 +20°C° 0.1 mm 5 mps 744 mmHg 80%
    19:00 +19°C° 0.1 mm 4 mps 744 mmHg 85%
    20:00 +17°C° 0.1 mm 3 mps 744 mmHg 89%
    21:00 +17°C° 0 mm 3 mps 744 mmHg 90%
    22:00 +16°C° 0 mm 3 mps 744 mmHg 92%
    23:00 +14°C° 0 mm 3 mps 744 mmHg 93%

    Day after tomorrow, 22 May, Wednesday

    Time Temperature Precipitation Wind Pressure Humidity
    00:00 +14°C° 0 mm 3 mps 744 mmHg 94%
    01:00 +14°C° 0 mm 3 mps 744 mmHg 95%
    02:00 +13°C° 0 mm 3 mps 744 mmHg 96%
    03:00 +14°C° 0 mm 2 mps 744 mmHg 96%
    04:00 +14°C° 0 mm 2 mps 743 mmHg 97%
    05:00 +14°C° 0 mm 2 mps 743 mmHg 98%
    06:00 +15°C° 0 mm 2 mps 743 mmHg 92%
    07:00 +17°C° 0 mm 2 mps 743 mmHg 86%
    08:00 +19°C° 0 mm 2 mps 743 mmHg 81%
    09:00 +21°C° 0 mm 2 mps 743 mmHg 72%
    10:00 +23°C° 0 mm 2 mps 743 mmHg 63%
    11:00 +25°C° 0 mm 2 mps 743 mmHg 55%
    12:00 +26°C° 0.1 mm 2 mps 743 mmHg 52%
    13:00 +26°C° 0.1 mm 2 mps 743 mmHg 50%
    14:00 +27°C° 0.1 mm 3 mps 743 mmHg 48%
    15:00 +26°C° 0 mm 2 mps 742 mmHg 50%
    16:00 +26°C° 0 mm 2 mps 742 mmHg 52%
    17:00 +26°C° 0 mm 2 mps 742 mmHg 54%
    18:00 +24°C° 0.1 mm 2 mps 742 mmHg 61%
    19:00 +21°C° 0.1 mm 2 mps 742 mmHg 68%
    20:00 +20°C° 0.1 mm 1 mps 742 mmHg 76%
    21:00 +19°C° 0 mm 1 mps 742 mmHg 79%
    22:00 +18°C° 0 mm 1 mps 742 mmHg 83%
    23:00 +16°C° 0 mm 1 mps 742 mmHg 86%

    23 May, Thursday

    Time Temperature Precipitation Wind Pressure Humidity
    00:00 +15°C° 0 mm 1 mps 742 mmHg 88%
    01:00 +15°C° 0 mm 1 mps 742 mmHg 89%
    02:00 +15°C° 0 mm 1 mps 742 mmHg 91%
    03:00 +15°C° 0 mm 1 mps 742 mmHg 90%
    04:00 +15°C° 0 mm 1 mps 742 mmHg 89%
    05:00 +15°C° 0 mm 1 mps 742 mmHg 89%
    06:00 +18°C° 0 mm 1 mps 742 mmHg 82%
    07:00 +20°C° 0 mm 1 mps 742 mmHg 75%
    08:00 +22°C° 0 mm 1 mps 742 mmHg 68%
    09:00 +23°C° 0 mm 1 mps 742 mmHg 62%
    10:00 +24°C° 0 mm 2 mps 742 mmHg 56%
    11:00 +26°C° 0 mm 2 mps 742 mmHg 50%
    12:00 +26°C° 0 mm 2 mps 742 mmHg 48%
    13:00 +26°C° 0 mm 2 mps 742 mmHg 46%
    14:00 +27°C° 0 mm 2 mps 742 mmHg 45%
    15:00 +26°C° 0 mm 2 mps 741 mmHg 47%
    16:00 +26°C° 0 mm 2 mps 741 mmHg 50%
    17:00 +25°C° 0 mm 1 mps 741 mmHg 53%
    18:00 +24°C° 0 mm 1 mps 741 mmHg 59%
    19:00 +22°C° 0 mm 1 mps 741 mmHg 65%
    20:00 +20°C° 0 mm 1 mps 741 mmHg 72%
    21:00 +19°C° 0 mm 1 mps 741 mmHg 77%
    22:00 +18°C° 0 mm 1 mps 741 mmHg 82%
    23:00 +16°C° 0 mm 2 mps 741 mmHg 88%

    24 May, Friday

    Time Temperature Precipitation Wind Pressure Humidity
    00:00 +16°C° 0.4 mm 1 mps 741 mmHg 89%
    01:00 +16°C° 0.4 mm 1 mps 741 mmHg 91%
    02:00 +14°C° 0.4 mm 0 mps 741 mmHg 92%
    03:00 +14°C° 0 mm 0 mps 741 mmHg 92%
    04:00 +15°C° 0 mm 0 mps 741 mmHg 91%
    05:00 +15°C° 0 mm 0 mps 741 mmHg 91%
    06:00 +18°C° 0 mm 1 mps 741 mmHg 86%
    07:00 +19°C° 0 mm 1 mps 741 mmHg 81%
    08:00 +21°C° 0 mm 1 mps 741 mmHg 76%
    09:00 +22°C° 0.4 mm 1 mps 741 mmHg 71%
    10:00 +23°C° 0.4 mm 1 mps 741 mmHg 65%
    11:00 +24°C° 0.4 mm 1 mps 740 mmHg 60%
    12:00 +24°C° 0.4 mm 2 mps 740 mmHg 61%
    13:00 +24°C° 0.4 mm 2 mps 740 mmHg 63%
    14:00 +24°C° 0.4 mm 2 mps 740 mmHg 65%
    15:00 +24°C° 0.3 mm 2 mps 740 mmHg 65%
    16:00 +24°C° 0.3 mm 2 mps 740 mmHg 64%
    17:00 +24°C° 0.3 mm 2 mps 739 mmHg 64%
    18:00 +21°C° 0.6 mm 2 mps 739 mmHg 73%
    19:00 +19°C° 0.6 mm 2 mps 739 mmHg 82%
    20:00 +19°C° 0.6 mm 1 mps 739 mmHg 90%
    21:00 +17°C° 0.4 mm 2 mps 739 mmHg 92%
    22:00 +16°C° 0.4 mm 2 mps 739 mmHg 94%
    23:00 +16°C° 0.4 mm 2 mps 739 mmHg 96%

    25 May, Saturday

    Time Temperature Precipitation Wind Pressure Humidity
    00:00 +15°C° 0 mm 2 mps 739 mmHg 96%
    01:00 +15°C° 0 mm 2 mps 739 mmHg 97%
    02:00 +14°C° 0 mm 2 mps 739 mmHg 97%
    03:00 +14°C° 0 mm 2 mps 739 mmHg 97%
    04:00 +14°C° 0 mm 3 mps 739 mmHg 97%
    05:00 +14°C° 0 mm 3 mps 739 mmHg 97%
    06:00 +14°C° 0.1 mm 3 mps 739 mmHg 96%
    07:00 +16°C° 0.1 mm 3 mps 739 mmHg 94%
    08:00 +16°C° 0.1 mm 3 mps 739 mmHg 92%
    09:00 +17°C° 0 mm 3 mps 739 mmHg 90%
    10:00 +17°C° 0 mm 3 mps 739 mmHg 87%
    11:00 +17°C° 0 mm 3 mps 739 mmHg 84%
    12:00 +18°C° 0 mm 4 mps 739 mmHg 80%
    13:00 +19°C° 0 mm 4 mps 739 mmHg 75%
    14:00 +20°C° 0 mm 4 mps 739 mmHg 71%
    15:00 +20°C° 0 mm 4 mps 739 mmHg 70%
    16:00 +20°C° 0 mm 4 mps 739 mmHg 68%
    17:00 +21°C° 0 mm 4 mps 739 mmHg 67%
    18:00 +19°C° 0 mm 3 mps 739 mmHg 73%
    19:00 +18°C° 0 mm 3 mps 739 mmHg 79%
    20:00 +16°C° 0 mm 2 mps 739 mmHg 85%
    21:00 +16°C° 0 mm 2 mps 739 mmHg 87%
    22:00 +15°C° 0 mm 2 mps 740 mmHg 89%
    23:00 +14°C° 0 mm 2 mps 740 mmHg 91%
    Show more